CW7849 Lidkaping SE current weather conditions

sailwx.info

Wind from 208 at 10 knots gusting 14

Air temperature 5.6° C
Dewpoint 5.0° C

Last reported at 2020-Jan-25 23:04 UTC.
Time now 2020-Jan-25 23:49 UTC

Location: N 58°24' E 013°17'.
View on Google Maps.

See reports from other nearby stations

  
Tides and Currents Weather Stations Pressure Air Temp Water Temp Dewpoint Dewpoint Depression Visibility Wind Speed Wind Dir Waves Ship Positions
date/time (UTC)wind fromknots sea level pressurealtimeterstation pressurevisibilityair tempwater tempwave heightnotes
2020-Jan-25 23:04 208 10 gusting 14 5.6
2020-Jan-25 22:59 213 10 gusting 14 5.0
2020-Jan-25 22:54 214 10 gusting 15 5.6
2020-Jan-25 22:49 219 8 gusting 14 5.6
2020-Jan-25 22:44 231 10 gusting 8 5.0
2020-Jan-25 22:39 231 10 gusting 8 5.6
2020-Jan-25 22:34 231 10 gusting 14 5.6
2020-Jan-25 22:29 221 8 gusting 15 5.0
2020-Jan-25 22:24 218 8 gusting 14 5.0
2020-Jan-25 22:19 216 7 gusting 14 5.6
2020-Jan-25 22:14 213 7 gusting 13 5.0
2020-Jan-25 22:09 222 7 gusting 6 5.0
2020-Jan-25 22:04 221 7 gusting 6 5.0
2020-Jan-25 21:59 221 7 gusting 6 5.6
2020-Jan-25 21:54 221 7 gusting 13 5.0
2020-Jan-25 21:49 218 8 gusting 13 5.0
2020-Jan-25 21:44 218 8 gusting 14 5.0
2020-Jan-25 21:39 206 8 gusting 6 5.0
2020-Jan-25 21:34 206 8 gusting 6 5.0
2020-Jan-25 21:29 206 8 gusting 8 4.4
2020-Jan-25 21:24 201 8 gusting 12 4.4
2020-Jan-25 21:19 202 8 gusting 15 4.4
2020-Jan-25 21:14 189 8 gusting 13 5.0
2020-Jan-25 21:09 206 10 gusting 10 4.4
2020-Jan-25 21:04 206 10 gusting 10 5.0
2020-Jan-25 20:59 206 10 gusting 10 4.4
2020-Jan-25 20:54 195 10 gusting 13 4.4
2020-Jan-25 20:49 194 10 gusting 13 4.4
2020-Jan-25 20:44 199 10 gusting 13 5.0
2020-Jan-25 20:39 189 10 gusting 14 5.0
2020-Jan-25 20:34 200 10 gusting 14 4.4
2020-Jan-25 20:29 190 10 gusting 14 5.0
2020-Jan-25 20:24 198 10 gusting 14 4.4
2020-Jan-25 20:19 197 10 gusting 14 5.0
2020-Jan-25 20:14 194 11 gusting 14 5.0
2020-Jan-25 20:09 196 11 gusting 15 5.0
2020-Jan-25 20:04 204 11 gusting 17 4.4
2020-Jan-25 19:59 201 10 gusting 13 4.4
2020-Jan-25 19:54 204 8 gusting 8 5.0
2020-Jan-25 19:49 204 8 gusting 8 4.4
2020-Jan-25 19:44 204 8 gusting 15 5.0
2020-Jan-25 19:39 202 7 gusting 14 5.0
2020-Jan-25 19:34 208 7 gusting 13 4.4
2020-Jan-25 19:29 217 7 gusting 6 5.0
2020-Jan-25 19:24 217 7 gusting 6 4.4
2020-Jan-25 19:19 217 7 gusting 11 4.4
2020-Jan-25 19:14 220 10 gusting 5 5.0
2020-Jan-25 19:09 220 10 gusting 5 5.0
2020-Jan-25 19:04 220 10 gusting 8 4.4
2020-Jan-25 18:59 219 10 gusting 13 4.4
2020-Jan-25 18:54 218 10 gusting 13 5.0
2020-Jan-25 18:49 219 10 gusting 12 5.0
2020-Jan-25 18:44 219 10 gusting 12 4.4
2020-Jan-25 18:39 219 10 gusting 14 5.0
2020-Jan-25 18:34 215 10 gusting 14 4.4
2020-Jan-25 18:29 218 10 gusting 14 5.0
2020-Jan-25 18:24 215 10 gusting 14 5.0
2020-Jan-25 18:19 213 9 gusting 18 4.4
2020-Jan-25 18:14 212 8 gusting 17 4.4
2020-Jan-25 18:09 198 8 gusting 13 4.4
2020-Jan-25 18:04 204 8 gusting 13 4.4
2020-Jan-25 17:59 206 7 gusting 15 4.4
2020-Jan-25 17:54 205 6 gusting 12 4.4
2020-Jan-25 17:49 201 6 gusting 11 4.4
2020-Jan-25 17:44 196 6 gusting 11 4.4
2020-Jan-25 17:39 201 6 gusting 11 5.0
2020-Jan-25 17:34 219 8 gusting 11 4.4
2020-Jan-25 17:29 219 8 gusting 11 5.0
2020-Jan-25 17:24 219 8 gusting 13 4.4
2020-Jan-25 17:19 221 7 gusting 13 4.4
2020-Jan-25 17:14 215 7 gusting 13 5.0
2020-Jan-25 17:09 217 7 gusting 12 4.4
2020-Jan-25 17:04 207 7 gusting 11 4.4
2020-Jan-25 16:59 209 7 gusting 12 5.0
2020-Jan-25 16:54 216 7 gusting 13 4.4
2020-Jan-25 16:49 214 7 gusting 13 4.4
2020-Jan-25 16:44 212 7 gusting 13 4.4
2020-Jan-25 16:39 221 6 gusting 11 5.0
2020-Jan-25 16:34 214 6 gusting 12 4.4
2020-Jan-25 16:29 211 6 gusting 11 4.4
2020-Jan-25 16:24 211 6 gusting 8 4.4
2020-Jan-25 16:19 210 6 gusting 6 4.4
2020-Jan-25 16:14 210 6 gusting 6 4.4
2020-Jan-25 16:09 210 6 gusting 7 3.9
2020-Jan-25 16:04 193 6 gusting 10 4.4
2020-Jan-25 15:59 201 6 gusting 11 4.4
2020-Jan-25 15:54 196 6 gusting 10 3.9
2020-Jan-25 15:49 202 6 gusting 8 4.4
2020-Jan-25 15:44 205 6 gusting 11 3.9
2020-Jan-25 15:39 202 6 gusting 7 3.9
2020-Jan-25 15:34 203 6 gusting 8 3.9
2020-Jan-25 15:29 198 6 gusting 7 3.9
2020-Jan-25 15:24 201 6 gusting 8 3.3
2020-Jan-25 15:19 197 6 gusting 8 3.9
2020-Jan-25 15:14 190 5 gusting 6 3.3
2020-Jan-25 15:09 186 6 gusting 6 4.4
2020-Jan-25 15:04 186 6 gusting 6 3.3
2020-Jan-25 14:59 191 6 gusting 7 3.3
2020-Jan-25 14:54 200 6 gusting 7 3.9
2020-Jan-25 14:49 203 6 gusting 8 3.9
2020-Jan-25 14:44 205 6 gusting 8 4.4
2020-Jan-25 14:39 213 6 gusting 10 3.9
2020-Jan-25 14:34 213 6 gusting 10 4.4
2020-Jan-25 14:29 222 6 gusting 10 4.4
2020-Jan-25 14:24 222 6 gusting 10 4.4
2020-Jan-25 14:19 210 6 gusting 11 4.4
2020-Jan-25 14:14 214 6 gusting 10 5.0
2020-Jan-25 14:09 203 6 gusting 6 4.4
2020-Jan-25 14:04 203 6 gusting 6 4.4
2020-Jan-25 13:59 203 6 gusting 6 5.0
2020-Jan-25 13:54 210 6 gusting 10 5.0
2020-Jan-25 13:49 206 6 gusting 6 5.0
2020-Jan-25 13:44 206 6 gusting 6 5.0
2020-Jan-25 13:39 206 6 gusting 7 4.4
2020-Jan-25 13:34 206 6 gusting 8 4.4
2020-Jan-25 13:29 212 6 gusting 8 4.4
2020-Jan-25 13:24 205 6 gusting 7 4.4
2020-Jan-25 13:19 207 6 gusting 10 4.4
2020-Jan-25 13:14 209 6 gusting 8 4.4
2020-Jan-25 13:09 205 6 gusting 6 4.4
2020-Jan-25 13:04 205 6 gusting 6 4.4
2020-Jan-25 12:59 205 6 gusting 8 5.0
2020-Jan-25 12:54 217 6 gusting 10 5.0
2020-Jan-25 12:49 216 6 gusting 11 5.0
2020-Jan-25 12:44 217 6 gusting 11 5.0
2020-Jan-25 12:39 223 6 gusting 10 5.0
2020-Jan-25 12:34 225 6 gusting 12 4.4
2020-Jan-25 12:29 228 6 gusting 13 5.0
2020-Jan-25 12:24 221 6 gusting 10 5.0
2020-Jan-25 12:19 222 6 gusting 10 4.4
2020-Jan-25 12:14 219 6 gusting 8 4.4
2020-Jan-25 12:09 208 6 gusting 10 3.9
2020-Jan-25 12:04 212 6 gusting 7 3.9
2020-Jan-25 11:59 210 6 gusting 7 4.4
2020-Jan-25 11:54 211 5 gusting 6 4.4
2020-Jan-25 11:49 211 5 gusting 6 3.9
2020-Jan-25 11:44 211 5 gusting 6 3.9
2020-Jan-25 11:39 208 5 gusting 7 3.9
2020-Jan-25 11:34 198 5 gusting 7 3.9
2020-Jan-25 11:29 204 5 gusting 8 3.9
2020-Jan-25 11:24 204 5 gusting 7 3.9
2020-Jan-25 11:19 219 5 gusting 6 3.9
2020-Jan-25 11:14 219 5 gusting 6 3.9
2020-Jan-25 11:09 219 5 gusting 7 3.9
2020-Jan-25 11:04 198 4 gusting 5 3.9
2020-Jan-25 10:59 198 4 gusting 5 3.9
2020-Jan-25 10:54 198 4 gusting 5 3.9
2020-Jan-25 10:49 200 4 gusting 6 3.3
2020-Jan-25 10:44 195 5 gusting 6 3.3
2020-Jan-25 10:39 194 5 gusting 6 3.3
2020-Jan-25 10:34 193 5 gusting 6 2.8
2020-Jan-25 10:29 205 5 gusting 6 2.8
2020-Jan-25 10:24 206 5 gusting 7 2.8
2020-Jan-25 10:19 203 5 gusting 7 2.8
2020-Jan-25 10:14 206 5 gusting 6 2.8
2020-Jan-25 10:09 202 6 gusting 7 2.2
2020-Jan-25 10:04 207 6 gusting 6 2.2
2020-Jan-25 09:59 214 6 gusting 6 2.2
2020-Jan-25 09:54 214 6 gusting 6 2.2
2020-Jan-25 09:49 214 6 gusting 8 2.2
2020-Jan-25 09:44 204 6 gusting 8 2.2
2020-Jan-25 09:39 201 5 gusting 7 1.7
2020-Jan-25 09:34 197 6 gusting 5 1.7
2020-Jan-25 09:29 197 6 gusting 5 1.7
2020-Jan-25 09:24 197 6 gusting 7 1.7
2020-Jan-25 09:19 193 5 gusting 7 1.7
2020-Jan-25 09:14 195 5 gusting 7 1.1
2020-Jan-25 09:09 195 5 gusting 7 1.1
2020-Jan-25 09:04 187 4 gusting 6 0.6
2020-Jan-25 08:59 187 4 gusting 6 0.6
2020-Jan-25 08:54 187 4 gusting 6 0.6
2020-Jan-25 08:49 197 4 gusting 6 0.6
2020-Jan-25 08:44 192 4 gusting 6 0.6
2020-Jan-25 08:39 184 0.6
2020-Jan-25 08:34 184 0.6
2020-Jan-25 08:29 184 0.6
2020-Jan-25 08:24 194 2 gusting 4 0.6
2020-Jan-25 08:19 194 2 gusting 4 0.6
2020-Jan-25 08:14 194 2 gusting 5 0.6
2020-Jan-25 08:09 188 1 gusting 5 0.6
2020-Jan-25 08:04 177 1 gusting 4 -0.0
2020-Jan-25 07:59 178 3 gusting 2 -0.0
2020-Jan-25 07:54 186 4 gusting 2 -0.0
2020-Jan-25 07:49 187 4 gusting 5 0.6
2020-Jan-25 07:44 188 4 gusting 5 -0.0
2020-Jan-25 07:39 185 4 gusting 6 -0.0
2020-Jan-25 07:34 190 4 gusting 5 -0.0
2020-Jan-25 07:29 182 4 gusting 6 -0.0
2020-Jan-25 07:24 178 4 gusting 6 -0.0
2020-Jan-25 07:19 180 4 gusting 5 0.6
2020-Jan-25 07:14 183 4 gusting 6 -0.0
2020-Jan-25 07:09 178 4 gusting 5 -0.0
2020-Jan-25 07:04 181 4 gusting 5 0.6
2020-Jan-25 06:59 185 4 gusting 5 0.6
2020-Jan-25 06:54 181 4 gusting 5 0.6
2020-Jan-25 06:49 175 4 gusting 5 0.6
2020-Jan-25 06:44 171 4 gusting 5 0.6
2020-Jan-25 06:39 185 2 gusting 5 -0.0
2020-Jan-25 06:34 182 2 gusting 5 0.6
2020-Jan-25 06:29 178 3 gusting 4 0.6
2020-Jan-25 06:24 177 4 gusting 5 0.6
2020-Jan-25 06:19 178 4 gusting 5 0.6
2020-Jan-25 06:14 185 4 gusting 5 0.6
2020-Jan-25 06:09 187 2 gusting 5 0.6
2020-Jan-25 06:04 181 2 gusting 5 0.6
2020-Jan-25 05:59 177 2 gusting 4 0.6
2020-Jan-25 05:54 171 2 gusting 4 0.6
2020-Jan-25 05:49 155 4 gusting 2 -0.0
2020-Jan-25 05:44 155 4 gusting 2 0.6
2020-Jan-25 05:39 155 4 gusting 4 0.6
2020-Jan-25 05:34 174 4 gusting 6 0.6
2020-Jan-25 05:29 179 4 gusting 6 0.6
2020-Jan-25 05:24 177 4 gusting 6 0.6
2020-Jan-25 05:19 169 4 gusting 5 0.6
2020-Jan-25 05:14 158 4 gusting 5 0.6
2020-Jan-25 05:09 162 4 gusting 5 0.6
2020-Jan-25 05:04 166 4 gusting 5 0.6
2020-Jan-25 04:59 166 3 gusting 5 0.6
2020-Jan-25 04:54 160 4 gusting 2 0.6
2020-Jan-25 04:49 160 4 gusting 2 0.6
2020-Jan-25 04:44 160 4 gusting 4 0.6
2020-Jan-25 04:39 172 4 gusting 4 0.6
2020-Jan-25 04:34 190 5 gusting 6 0.6
2020-Jan-25 04:29 205 4 gusting 6 -0.0
2020-Jan-25 04:24 201 4 gusting 6 0.6
2020-Jan-25 04:19 189 4 gusting 5 0.6
2020-Jan-25 04:14 189 4 gusting 5 0.6
2020-Jan-25 04:09 189 4 gusting 5 0.6
2020-Jan-25 04:04 195 4 gusting 5 0.6
2020-Jan-25 03:59 184 4 gusting 5 -0.0
2020-Jan-25 03:54 195 5 gusting 5 -0.0
2020-Jan-25 03:49 195 5 gusting 5 0.6
2020-Jan-25 03:44 195 5 gusting 6 0.6
2020-Jan-25 03:39 189 4 gusting 6 0.6
2020-Jan-25 03:34 189 4 gusting 6 0.6
2020-Jan-25 03:29 190 2 gusting 4 0.6
2020-Jan-25 03:24 190 2 gusting 4 0.6
2020-Jan-25 03:19 190 2 gusting 5 0.6
2020-Jan-25 03:14 178 2 gusting 5 0.6
2020-Jan-25 03:09 169 2 gusting 4 0.6
2020-Jan-25 03:04 166 2 gusting 4 0.6
2020-Jan-25 02:59 175 2 gusting 5 0.6
2020-Jan-25 02:54 169 1 gusting 5 0.6
2020-Jan-25 02:49 190 1 gusting 2 0.6
2020-Jan-25 02:44 190 1 gusting 2 -0.0
2020-Jan-25 02:39 190 1 gusting 2 -0.0
2020-Jan-25 02:34 190 1 gusting 4 0.6
2020-Jan-25 02:29 166 2 gusting 4 -0.0
2020-Jan-25 02:24 157 2 gusting 4 -0.0
2020-Jan-25 02:19 182 2 gusting 4 -0.0
2020-Jan-25 02:14 185 1 gusting 4 -0.0
2020-Jan-25 02:09 182 1 gusting 4 -0.0
2020-Jan-25 02:04 182 1 gusting 4 0.6
2020-Jan-25 01:59 186 2 gusting 4 0.6
2020-Jan-25 01:54 189 2 gusting 2 0.6
2020-Jan-25 01:49 172 3 gusting 2 1.1
2020-Jan-25 01:44 178 4 gusting 5 1.1
2020-Jan-25 01:39 182 4 gusting 5 0.6
2020-Jan-25 01:34 173 4 gusting 5 0.6
2020-Jan-25 01:29 180 4 gusting 4 1.1
2020-Jan-25 01:24 195 5 gusting 5 0.6
2020-Jan-25 01:19 201 5 gusting 6 1.1
2020-Jan-25 01:14 206 5 gusting 6 1.1
2020-Jan-25 01:09 209 4 gusting 6 1.1
2020-Jan-25 01:04 206 4 gusting 6 1.1
2020-Jan-25 00:59 195 4 gusting 5 1.1
2020-Jan-25 00:54 176 4 gusting 4 1.1
2020-Jan-25 00:49 146 4 gusting 4 1.1
2020-Jan-25 00:44 177 4 gusting 5 1.1
2020-Jan-25 00:39 169 2 gusting 5 0.6
2020-Jan-25 00:34 179 2 gusting 4 0.6
2020-Jan-25 00:29 189 3 gusting 4 1.1
2020-Jan-25 00:24 165 4 gusting 5 1.1
2020-Jan-25 00:19 189 4 gusting 5 0.6
2020-Jan-25 00:14 205 5 gusting 6 0.6
2020-Jan-25 00:09 211 5 gusting 6 1.1
2020-Jan-25 00:04 211 5 gusting 6 1.1
2020-Jan-24 23:59 211 5 gusting 6 1.1
2020-Jan-24 23:54 222 5 gusting 7 1.1
2020-Jan-24 23:49 231 4 gusting 6 1.1
2020-Jan-24 23:44 233 4 gusting 6 1.1
2020-Jan-24 23:39 225 4 gusting 5 1.1
2020-Jan-24 23:34 219 4 gusting 5 1.1
2020-Jan-24 23:29 219 4 gusting 5 0.6
2020-Jan-24 23:24 219 4 gusting 6 1.1
2020-Jan-24 23:19 209 5 gusting 6 1.1
2020-Jan-24 23:14 207 5 gusting 6 1.1
2020-Jan-24 23:09 208 4 gusting 6 1.1
2020-Jan-24 23:04 208 4 gusting 6 1.1
2020-Jan-24 22:59 212 5 gusting 6 1.1
2020-Jan-24 22:54 210 5 gusting 5 0.6
2020-Jan-24 22:49 212 4 gusting 4 0.6
2020-Jan-24 22:44 212 4 gusting 4 1.1
2020-Jan-24 22:39 212 4 gusting 6 1.1
2020-Jan-24 22:34 208 4 gusting 6 1.1
2020-Jan-24 22:29 212 4 gusting 6 1.1
2020-Jan-24 22:24 213 4 gusting 6 1.7
2020-Jan-24 22:19 226 6 gusting 6 0.6
2020-Jan-24 22:14 226 6 gusting 6 1.7
2020-Jan-24 22:09 226 6 gusting 6 1.7
2020-Jan-24 22:04 217 6 gusting 6 1.7
2020-Jan-24 21:59 225 6 gusting 6 1.7
2020-Jan-24 21:54 220 6 gusting 8 1.7
2020-Jan-24 21:49 224 6 gusting 8 1.7
2020-Jan-24 21:44 213 5 gusting 6 1.7
2020-Jan-24 21:39 213 5 gusting 6 1.7
2020-Jan-24 21:34 213 5 gusting 8 1.7
2020-Jan-24 21:29 221 5 gusting 8 1.7
2020-Jan-24 21:24 220 5 gusting 7 1.7
2020-Jan-24 21:19 215 4 gusting 7 1.1
2020-Jan-24 21:14 214 4 gusting 6 1.1
2020-Jan-24 21:09 213 4 gusting 6 1.1
2020-Jan-24 21:04 225 5 gusting 5 1.1
2020-Jan-24 20:59 225 6 gusting 5 2.2
2020-Jan-24 20:54 225 6 gusting 5 1.7
2020-Jan-24 20:49 223 5 gusting 7 2.2
2020-Jan-24 20:44 203 6 gusting 7 1.7
2020-Jan-24 20:39 203 6 gusting 7 1.7
2020-Jan-24 20:34 203 6 gusting 8 2.8
2020-Jan-24 20:29 227 6 gusting 8 2.2
2020-Jan-24 20:24 232 6 gusting 10 2.8
2020-Jan-24 20:19 233 6 gusting 10 2.2
2020-Jan-24 20:14 223 6 gusting 6 2.2
2020-Jan-24 20:09 223 6 gusting 6 2.2
2020-Jan-24 20:04 223 6 gusting 7 2.2
2020-Jan-24 19:59 221 6 gusting 7 2.2
2020-Jan-24 19:54 227 4 gusting 6 2.2
2020-Jan-24 19:49 227 4 gusting 6 2.2
2020-Jan-24 19:44 227 4 gusting 10 1.7
2020-Jan-24 19:39 219 5 gusting 6 1.7
2020-Jan-24 19:34 212 5 gusting 6 1.7
2020-Jan-24 19:29 220 6 gusting 6 1.7
2020-Jan-24 19:24 220 6 gusting 6 2.2
2020-Jan-24 19:19 220 6 gusting 8 1.7
2020-Jan-24 19:14 216 6 gusting 7 2.2
2020-Jan-24 19:09 219 6 gusting 8 2.2
2020-Jan-24 19:04 217 6 gusting 8 2.8
2020-Jan-24 18:59 217 6 gusting 7 2.2
2020-Jan-24 18:54 215 6 gusting 7 2.8
2020-Jan-24 18:49 215 6 gusting 7 2.2
2020-Jan-24 18:44 214 6 gusting 11 2.8
2020-Jan-24 18:39 209 6 gusting 6 2.8
2020-Jan-24 18:34 209 6 gusting 6 2.8
2020-Jan-24 18:29 209 6 gusting 7 2.8
2020-Jan-24 18:24 214 6 gusting 8 2.2
2020-Jan-24 18:19 216 6 gusting 10 2.8
2020-Jan-24 18:14 210 6 gusting 7 2.8
2020-Jan-24 18:09 215 6 gusting 8 2.8
2020-Jan-24 18:04 217 6 gusting 8 3.3
2020-Jan-24 17:59 215 6 gusting 8 3.3
2020-Jan-24 17:54 215 6 gusting 10 2.8
2020-Jan-24 17:49 220 6 gusting 8 2.8
2020-Jan-24 17:44 223 6 gusting 10 3.3
2020-Jan-24 17:39 223 7 gusting 8 3.3
2020-Jan-24 17:34 222 7 gusting 11 3.3
2020-Jan-24 17:29 213 5 gusting 8 3.3
2020-Jan-24 17:24 213 5 gusting 8 3.3
2020-Jan-24 17:19 213 5 gusting 10 3.3
2020-Jan-24 17:14 217 5 gusting 8 3.3
2020-Jan-24 17:09 208 5 gusting 6 2.8
2020-Jan-24 17:04 208 5 gusting 6 3.3
2020-Jan-24 16:59 208 5 gusting 6 3.3
2020-Jan-24 16:54 210 5 gusting 6 3.3
2020-Jan-24 16:49 218 5 gusting 7 3.3
2020-Jan-24 16:44 217 6 gusting 6 2.8
2020-Jan-24 16:39 212 6 gusting 8 2.8
2020-Jan-24 16:34 208 6 gusting 10 3.3
2020-Jan-24 16:29 216 5 gusting 5 4.4
2020-Jan-24 16:24 216 5 gusting 5 3.9
2020-Jan-24 16:19 216 5 gusting 5 3.3
2020-Jan-24 16:14 212 5 gusting 7 3.3
2020-Jan-24 16:09 220 6 gusting 6 3.3
2020-Jan-24 16:04 217 6 gusting 5 4.4
2020-Jan-24 15:59 217 6 gusting 5 4.4
2020-Jan-24 15:54 217 6 gusting 7 4.4
2020-Jan-24 15:49 232 7 gusting 6 3.9
2020-Jan-24 15:44 232 7 gusting 6 3.9
2020-Jan-24 15:39 232 7 gusting 6 4.4
2020-Jan-24 15:34 230 7 gusting 11 4.4
2020-Jan-24 15:29 223 8 gusting 12 4.4
2020-Jan-24 15:24 223 8 gusting 13 4.4
2020-Jan-24 15:19 219 7 gusting 15 5.0
2020-Jan-24 15:14 230 6 gusting 13 4.4
2020-Jan-24 15:09 226 7 gusting 11 5.0
2020-Jan-24 15:04 226 7 gusting 13 4.4
2020-Jan-24 14:59 223 7 gusting 11 4.4
2020-Jan-24 14:54 227 7 gusting 12 5.0
2020-Jan-24 14:49 236 7 gusting 12 5.6
2020-Jan-24 14:44 234 6 gusting 13 4.4
2020-Jan-24 14:39 228 7 gusting 10 5.6
2020-Jan-24 14:34 219 10 gusting 6 6.1
2020-Jan-24 14:29 219 10 gusting 6 6.1
2020-Jan-24 14:24 219 10 gusting 12 5.6
2020-Jan-24 14:19 234 9 gusting 13 6.1
2020-Jan-24 14:14 235 8 gusting 14 6.1
2020-Jan-24 14:09 229 10 gusting 14 5.6
2020-Jan-24 14:04 228 11 gusting 14 6.1
2020-Jan-24 13:59 222 10 gusting 15 6.1
2020-Jan-24 13:54 226 10 gusting 15 5.6
2020-Jan-24 13:49 231 10 gusting 15 6.1
2020-Jan-24 13:44 224 10 gusting 13 6.1
2020-Jan-24 13:39 234 11 gusting 11 6.7
2020-Jan-24 13:34 234 11 gusting 11 6.1
2020-Jan-24 13:29 234 11 gusting 15 6.1
2020-Jan-24 13:24 229 11 gusting 18 6.1
2020-Jan-24 13:19 236 10 gusting 18 6.7
2020-Jan-24 13:14 237 10 gusting 10 6.7
2020-Jan-24 13:09 237 10 gusting 10 6.7
2020-Jan-24 13:04 237 10 gusting 13 6.7
2020-Jan-24 12:59 235 8 gusting 17 6.7
2020-Jan-24 12:54 236 7 gusting 13 6.7
2020-Jan-24 12:49 230 7 gusting 13 6.7
2020-Jan-24 12:44 238 7 gusting 12 7.2
2020-Jan-24 12:39 240 8 gusting 11 7.2
2020-Jan-24 12:34 227 8 gusting 13 6.7
2020-Jan-24 12:29 225 8 gusting 12 6.7
2020-Jan-24 12:24 221 7 gusting 13 6.7
2020-Jan-24 12:19 240 7 gusting 6 6.7
2020-Jan-24 12:14 240 7 gusting 6 6.7
2020-Jan-24 12:09 240 7 gusting 11 6.7
2020-Jan-24 12:04 238 7 gusting 13 6.7
2020-Jan-24 11:59 229 8 gusting 12 6.7
2020-Jan-24 11:54 232 10 gusting 11 6.7
2020-Jan-24 11:49 231 10 gusting 13 6.7
2020-Jan-24 11:44 227 10 gusting 14 6.7
2020-Jan-24 11:39 227 9 gusting 13 6.7
2020-Jan-24 11:34 230 8 gusting 15 6.7
2020-Jan-24 11:29 233 10 gusting 12 6.7
2020-Jan-24 11:24 238 11 gusting 13 6.7
2020-Jan-24 11:19 240 11 gusting 11 6.7
2020-Jan-24 11:14 240 11 gusting 11 6.7
2020-Jan-24 11:09 240 11 gusting 11 6.7
2020-Jan-24 11:04 237 11 gusting 18 6.7
2020-Jan-24 10:59 239 9 gusting 15 6.7
2020-Jan-24 10:54 236 8 gusting 15 6.7
2020-Jan-24 10:49 235 9 gusting 14 6.7
2020-Jan-24 10:44 235 10 gusting 13 6.7
2020-Jan-24 10:39 230 9 gusting 13 6.7
2020-Jan-24 10:34 235 8 gusting 13 6.7
2020-Jan-24 10:29 235 8 gusting 13 6.7
2020-Jan-24 10:24 242 8 gusting 12 6.7
2020-Jan-24 10:19 237 9 gusting 13 6.7
2020-Jan-24 10:14 242 10 gusting 13 6.7
2020-Jan-24 10:09 242 8 gusting 14 6.7
2020-Jan-24 10:04 238 8 gusting 10 6.7
2020-Jan-24 09:59 238 8 gusting 10 6.7
2020-Jan-24 09:54 238 8 gusting 14 6.7
2020-Jan-24 09:49 231 8 gusting 13 6.7
2020-Jan-24 09:44 225 8 gusting 13 6.7
2020-Jan-24 09:39 227 9 gusting 13 6.7
2020-Jan-24 09:34 221 10 gusting 13 6.7
2020-Jan-24 09:29 223 8 gusting 15 6.7
2020-Jan-24 09:24 229 8 gusting 15 6.7
2020-Jan-24 09:19 234 9 gusting 13 6.7
2020-Jan-24 09:14 247 8 gusting 11 6.7
2020-Jan-24 09:09 247 8 gusting 11 6.7
2020-Jan-24 09:04 247 8 gusting 14 6.7
2020-Jan-24 08:59 233 8 gusting 13 6.7
2020-Jan-24 08:54 231 8 gusting 14 6.7
2020-Jan-24 08:49 228 9 gusting 13 6.1
2020-Jan-24 08:44 254 7 gusting 10 6.1
2020-Jan-24 08:39 254 7 gusting 10 6.7
2020-Jan-24 08:34 254 7 gusting 13 6.7
2020-Jan-24 08:29 241 8 gusting 13 6.1
2020-Jan-24 08:24 228 8 gusting 12 6.7
2020-Jan-24 08:19 228 8 gusting 12 6.1
2020-Jan-24 08:14 228 8 gusting 12 6.1
2020-Jan-24 08:09 231 8 gusting 14 6.7
2020-Jan-24 08:04 235 8 gusting 13 6.1
2020-Jan-24 07:59 227 10 gusting 14 6.7
2020-Jan-24 07:54 235 9 gusting 10 6.1
2020-Jan-24 07:49 243 10 gusting 10 6.1
2020-Jan-24 07:44 243 10 gusting 10 6.7
2020-Jan-24 07:39 243 10 gusting 14 6.7
2020-Jan-24 07:34 235 10 gusting 14 6.1
2020-Jan-24 07:29 242 10 gusting 19 6.7
2020-Jan-24 07:24 245 10 gusting 15 6.1
2020-Jan-24 07:19 241 10 gusting 14 6.7
2020-Jan-24 07:14 237 10 gusting 18 6.7
2020-Jan-24 07:09 240 11 gusting 17 6.7
2020-Jan-24 07:04 245 11 gusting 15 6.7
2020-Jan-24 06:59 233 11 gusting 17 6.1
2020-Jan-24 06:54 234 11 gusting 15 6.1
2020-Jan-24 06:49 225 11 gusting 15 6.7
2020-Jan-24 06:44 224 12 gusting 14 6.1
2020-Jan-24 06:39 229 11 gusting 18 6.1
2020-Jan-24 06:34 225 11 gusting 15 6.7
2020-Jan-24 06:29 223 11 gusting 15 6.1
2020-Jan-24 06:24 229 11 gusting 14 6.7
2020-Jan-24 06:19 231 11 gusting 15 6.1
2020-Jan-24 06:14 221 11 gusting 15 6.1
2020-Jan-24 06:09 221 11 gusting 15 6.1
2020-Jan-24 06:04 219 11 gusting 15 6.1
2020-Jan-24 05:59 224 11 gusting 19 6.1
2020-Jan-24 05:54 224 9 gusting 15 6.1
2020-Jan-24 05:49 223 10 gusting 13 6.1
2020-Jan-24 05:44 223 10 gusting 13 6.1
2020-Jan-24 05:39 223 10 gusting 13 6.1
2020-Jan-24 05:34 223 10 gusting 17 6.1
2020-Jan-24 05:29 225 10 gusting 15 6.1
2020-Jan-24 05:24 232 11 gusting 17 6.1
2020-Jan-24 05:19 219 11 gusting 15 6.1
2020-Jan-24 05:14 218 11 gusting 17 5.6
2020-Jan-24 05:09 220 12 gusting 13 6.1
2020-Jan-24 05:04 226 12 gusting 17 6.1
2020-Jan-24 04:59 222 11 gusting 19 6.1
2020-Jan-24 04:54 221 11 gusting 18 6.1
2020-Jan-24 04:49 222 11 gusting 18 6.1
2020-Jan-24 04:44 226 11 gusting 15 6.1
2020-Jan-24 04:39 221 11 gusting 15 6.1
2020-Jan-24 04:34 225 12 gusting 15 6.1
2020-Jan-24 04:29 225 11 gusting 14 5.6
2020-Jan-24 04:24 224 11 gusting 17 5.6
2020-Jan-24 04:19 220 11 gusting 18 6.1
2020-Jan-24 04:14 229 12 gusting 18 6.1
2020-Jan-24 04:09 222 12 gusting 15 5.6
2020-Jan-24 04:04 224 12 gusting 15 5.6
2020-Jan-24 03:59 223 12 gusting 18 5.6
2020-Jan-24 03:54 229 12 gusting 15 6.1
2020-Jan-24 03:49 228 12 gusting 17 6.1
2020-Jan-24 03:44 226 12 gusting 18 6.1
2020-Jan-24 03:39 227 12 gusting 18 5.6
2020-Jan-24 03:34 228 13 gusting 13 6.1
2020-Jan-24 03:29 228 13 gusting 13 6.1
2020-Jan-24 03:24 228 13 gusting 17 6.1
2020-Jan-24 03:19 225 12 gusting 18 6.1
2020-Jan-24 03:14 218 12 gusting 19 5.6
2020-Jan-24 03:09 217 12 gusting 18 6.1
2020-Jan-24 03:04 209 13 gusting 10 6.1
2020-Jan-24 02:59 209 13 gusting 10 6.1
2020-Jan-24 02:54 209 13 gusting 15 6.1
2020-Jan-24 02:49 223 12 gusting 19 5.6
2020-Jan-24 02:44 218 12 gusting 18 5.6
2020-Jan-24 02:39 226 12 gusting 19 5.6
2020-Jan-24 02:34 221 13 gusting 19 6.1
2020-Jan-24 02:29 226 13 gusting 17 6.1
2020-Jan-24 02:24 222 13 gusting 18 6.1
2020-Jan-24 02:19 224 13 gusting 19 6.1
2020-Jan-24 02:14 225 13 gusting 19 5.6
2020-Jan-24 02:09 223 13 gusting 21 5.6
2020-Jan-24 02:04 224 13 gusting 18 6.1
2020-Jan-24 01:59 221 12 gusting 17 5.6
2020-Jan-24 01:54 227 12 gusting 19 6.1
2020-Jan-24 01:49 231 10 gusting 17 6.1
2020-Jan-24 01:44 231 12 gusting 17 5.6
2020-Jan-24 01:39 231 12 gusting 17 5.6
2020-Jan-24 01:34 229 12 gusting 19 6.1
2020-Jan-24 01:29 229 13 gusting 21 6.1
2020-Jan-24 01:24 229 13 gusting 19 6.1
2020-Jan-24 01:19 228 12 gusting 19 5.6
2020-Jan-24 01:14 224 10 gusting 19 6.1
2020-Jan-24 01:09 224 12 gusting 15 6.1
2020-Jan-24 01:04 224 12 gusting 15 6.1
2020-Jan-24 00:59 231 12 gusting 18 6.1
2020-Jan-24 00:54 224 13 gusting 19 6.1
2020-Jan-24 00:49 231 13 gusting 19 6.1
2020-Jan-24 00:44 230 13 gusting 18 6.1
2020-Jan-24 00:39 224 13 gusting 13 6.1
2020-Jan-24 00:34 224 13 gusting 13 6.1
2020-Jan-24 00:29 224 13 gusting 18 6.1
2020-Jan-24 00:24 227 13 gusting 18 6.1
2020-Jan-24 00:19 226 13 gusting 19 6.7
2020-Jan-24 00:14 225 13 gusting 20 6.1
2020-Jan-24 00:09 225 13 gusting 19 6.1
2020-Jan-24 00:04 228 13 gusting 19 6.1
2020-Jan-23 23:59 231 13 gusting 24 6.1
2020-Jan-23 23:54 225 13 gusting 22 6.1
2020-Jan-23 23:49 222 13 gusting 21 6.1
2020-Jan-23 23:44 234 13 gusting 18 6.1
2020-Jan-23 23:39 231 13 gusting 19 5.6
2020-Jan-23 23:34 226 13 gusting 20 5.6
2020-Jan-23 23:29 226 15 gusting 19 6.1
2020-Jan-23 23:24 220 15 gusting 20 5.6
2020-Jan-23 23:19 207 14 gusting 21 6.1
2020-Jan-23 23:14 193 13 gusting 13 6.1
2020-Jan-23 23:09 193 13 gusting 13 6.1
2020-Jan-23 23:04 197 13 gusting 21 6.1